Location: Newark
(49.3808°N, 3.1844°E)
Time: 16:12:39
(UTC+00:00)

A-11 Canister half - Visible Passes

Search period start: 15 November 2019 00:00
Search period end: 25 November 2019 00:00
Orbit: 1514 x 1686 km, 47.2° (Epoch: 13 November)

Date Brightness Start Highest point End Pass type
(mag) Time Alt. Az. Time Alt. Az. Time Alt. Az.
15 Nov 9.9 17:32:58 10° SSW 17:41:33 33° SE 17:47:00 20° E visible
15 Nov 9.1 19:35:26 10° WSW 19:45:13 66° SSE 19:45:13 66° SSE visible
15 Nov 10.6 21:40:07 10° W 21:43:25 24° W 21:43:25 24° W visible
16 Nov 10.0 17:10:17 10° SSW 17:18:42 32° SE 17:25:26 15° E visible
16 Nov 9.0 19:12:32 10° SW 19:22:31 65° SSE 19:23:39 62° SE visible
16 Nov 10.3 21:17:09 10° W 21:21:50 32° W 21:21:50 32° W visible
17 Nov 10.1 16:47:38 10° S 16:55:51 30° SE 17:03:50 11° E visible
17 Nov 9.1 18:49:39 10° SW 18:59:37 63° SSE 19:02:02 51° ESE visible
17 Nov 9.9 20:54:12 10° W 21:00:14 42° W 21:00:14 42° W visible
18 Nov 10.2 16:25:00 10° S 16:33:00 28° SE 16:41:06 10° E visible
18 Nov 9.2 18:26:46 10° SW 18:36:41 62° SSE 18:40:24 41° E visible
18 Nov 9.5 20:31:15 10° W 20:38:36 54° WSW 20:38:36 54° WSW visible
18 Nov 11.2 22:36:16 10° W 22:36:47 12° W 22:36:47 12° W visible
19 Nov 9.3 18:03:55 10° SW 18:13:45 60° SSE 18:18:44 33° E visible
19 Nov 9.2 20:08:18 10° W 20:16:56 68° WSW 20:16:56 68° WSW visible
19 Nov 10.9 22:13:18 10° W 22:15:07 17° W 22:15:07 17° W visible
20 Nov 9.4 17:41:04 10° SW 17:50:50 58° SSE 17:57:02 26° E visible
20 Nov 9.0 19:45:21 10° W 19:55:15 79° SSW 19:55:15 79° SSW visible
20 Nov 10.7 21:50:21 10° W 21:53:26 23° W 21:53:26 23° W visible
21 Nov 9.4 17:18:13 10° SW 17:27:56 56° SSE 17:35:21 19° E visible
21 Nov 8.9 19:22:24 10° W 19:32:35 80° S 19:33:33 74° SE visible
21 Nov 10.4 21:27:23 10° W 21:31:44 30° W 21:31:44 30° W visible
22 Nov 9.5 16:55:23 10° SW 17:05:01 54° SSE 17:13:39 14° E visible
22 Nov 9.0 18:59:28 10° WSW 19:09:37 79° S 19:11:51 60° ESE visible
22 Nov 10.1 21:04:26 10° W 21:10:02 38° W 21:10:02 38° W visible
23 Nov 9.6 16:32:33 10° SW 16:42:07 52° SSE 16:51:50 10° ENE visible
23 Nov 9.1 18:36:32 10° WSW 18:46:40 79° S 18:50:08 48° E visible
23 Nov 9.7 20:41:29 10° W 20:48:19 48° W 20:48:19 48° W visible
24 Nov 9.1 18:13:36 10° WSW 18:23:42 78° S 18:28:25 38° E visible
24 Nov 9.4 20:18:32 10° W 20:26:37 59° WSW 20:26:37 59° WSW visible
24 Nov 11.1 22:23:39 10° WNW 22:24:48 14° W 22:24:48 14° W visible
